| time (UTC) | temp F | wind direction | speed knots | gust knots | rain 1hr in | rain 24hr in | rain mn in | humidity % | barometer mb |
| 20260506165403 | 56 | 246 | 0.9 | 2.6 | 0.00 | 0.00 | 0.00 | 55 | 1014.2 |
| 20260506164503 | 55 | 238 | 0.9 | 3.5 | 0.00 | 0.00 | 0.00 | 55 | 1014.2 |
| 20260506163603 | 55 | 208 | 0.9 | 2.6 | 0.00 | 0.00 | 0.00 | 56 | 1014.1 |
| 20260506162703 | 56 | 255 | 0.9 | 1.7 | 0.00 | 0.00 | 0.00 | 56 | 1014.3 |
| 20260506161803 | 56 | 274 | 0.9 | 1.7 | 0.00 | 0.00 | 0.00 | 57 | 1014.2 |
| 20260506161118 | 55 | 33 | 0.9 | 1.7 | 0.00 | 0.00 | 0.00 | 58 | 1014.1 |
| 20260506160004 | 56 | 275 | 0.9 | 5.2 | 0.00 | 0.00 | 0.00 | 59 | 1014.5 |
| 20260506155403 | 55 | 243 | 0.9 | 5.2 | 0.00 | 0.00 | 0.00 | 57 | 1014.3 |
| 20260506154503 | 56 | 205 | 0.9 | 5.2 | 0.00 | 0.00 | 0.00 | 57 | 1014.8 |
| 20260506153603 | 55 | 232 | 0.9 | 3.5 | 0.00 | 0.00 | 0.00 | 57 | 1014.6 |
| 20260506152703 | 55 | 231 | 0.9 | 3.5 | 0.00 | 0.00 | 0.00 | 57 | 1014.5 |
| 20260506151803 | 55 | 233 | 0.9 | 3.5 | 0.00 | 0.00 | 0.00 | 58 | 1014.8 |
| 20260506150903 | 55 | 221 | 0.9 | 3.5 | 0.00 | 0.00 | 0.00 | 58 | 1014.7 |
| 20260506150003 | 55 | 250 | 0.9 | 5.2 | 0.00 | 0.00 | 0.00 | 59 | 1014.8 |
| 20260506145403 | 55 | 257 | 0.9 | 5.2 | 0.00 | 0.00 | 0.00 | 58 | 1014.9 |
| 20260506144503 | 56 | 255 | 0.9 | 5.2 | 0.00 | 0.00 | 0.00 | 57 | 1015.1 |
| 20260506143818 | 56 | 247 | 0.9 | 5.2 | 0.00 | 0.00 | 0.00 | 57 | 1014.9 |
| 20260506142703 | 54 | 255 | 1.7 | 5.2 | 0.00 | 0.00 | 0.00 | 60 | 1015.0 |
| 20260506141803 | 55 | 212 | 0.9 | 3.5 | 0.00 | 0.00 | 0.00 | 57 | 1014.9 |
| 20260506140903 | 57 | 222 | 0.9 | 3.5 | 0.00 | 0.00 | 0.00 | 56 | 1014.8 |
| 20260506140004 | 56 | 276 | 1.7 | 3.5 | 0.00 | 0.00 | 0.00 | 56 | 1014.9 |
| 20260506135618 | 55 | 285 | 1.7 | 3.5 | 0.00 | 0.00 | 0.00 | 57 | 1014.7 |
| 20260506134718 | 56 | 299 | 1.7 | 6.1 | 0.00 | 0.00 | 0.00 | 54 | 1014.8 |
| 20260506133603 | 56 | 281 | 1.7 | 3.5 | 0.00 | 0.00 | 0.00 | 52 | 1015.0 |
| 20260506132703 | 56 | 279 | 0.9 | 2.6 | 0.00 | 0.00 | 0.00 | 54 | 1014.9 |
| 20260506131803 | 56 | 262 | 0.9 | 3.5 | 0.00 | 0.00 | 0.00 | 52 | 1014.9 |
| 20260506130903 | 56 | 300 | 0.9 | 2.6 | 0.00 | 0.00 | 0.00 | 53 | 1014.9 |
| 20260506130004 | 55 | 288 | 0.9 | 3.5 | 0.00 | 0.00 | 0.00 | 54 | 1015.0 |
| 20260506125403 | 54 | 296 | 0.9 | 3.5 | 0.00 | 0.00 | 0.00 | 55 | 1015.0 |
| 20260506124503 | 54 | 284 | 0.9 | 3.5 | 0.00 | 0.00 | 0.00 | 56 | 1014.9 |
| 20260506123817 | 56 | 280 | 0.9 | 3.5 | 0.00 | 0.00 | 0.00 | 55 | 1015.1 |
| 20260506122703 | 56 | 303 | 0.9 | 2.6 | 0.00 | 0.00 | 0.00 | 57 | 1014.8 |
| 20260506121803 | 56 | 286 | 0.9 | 2.6 | 0.00 | 0.00 | 0.00 | 52 | 1014.8 |
| 20260506120903 | 56 | 264 | 0.9 | 2.6 | 0.00 | 0.00 | 0.00 | 53 | 1015.0 |
| 20260506120218 | 54 | 326 | 0.0 | 1.7 | 0.00 | 0.00 | 0.00 | 50 | 1015.0 |
| 20260506115618 | 54 | 15 | 0.9 | 2.6 | 0.00 | 0.00 | 0.00 | 57 | 1015.3 |
| 20260506114503 | 53 | 77 | 0.9 | 3.5 | 0.00 | 0.00 | 0.00 | 49 | 1014.7 |
| 20260506113603 | 54 | 81 | 0.9 | 3.5 | 0.00 | 0.00 | 0.00 | 51 | 1015.1 |
| 20260506112703 | 54 | 80 | 0.9 | 2.6 | 0.00 | 0.00 | 0.00 | 51 | 1015.3 |
| 20260506111803 | 55 | 82 | 0.9 | 3.5 | 0.00 | 0.00 | 0.00 | 49 | 1015.5 |
| 20260506110903 | 53 | 61 | 0.9 | 2.6 | 0.00 | 0.00 | 0.00 | 50 | 1015.5 |
| 20260506110004 | 54 | 76 | 0.9 | 3.5 | 0.00 | 0.00 | 0.00 | 49 | 1015.6 |
| 20260506105403 | 54 | 72 | 0.9 | 3.5 | 0.00 | 0.00 | 0.00 | 47 | 1015.5 |
| 20260506104503 | 54 | 77 | 1.7 | 5.2 | 0.00 | 0.00 | 0.00 | 50 | 1015.6 |
| 20260506103603 | 53 | 72 | 0.9 | 2.6 | 0.00 | 0.00 | 0.00 | 49 | 1015.7 |
| 20260506102703 | 53 | 74 | 0.9 | 2.6 | 0.00 | 0.00 | 0.00 | 49 | 1015.6 |
| 20260506101803 | 53 | 81 | 0.9 | 3.5 | 0.00 | 0.00 | 0.00 | 53 | 1015.8 |
| 20260506100903 | 52 | 75 | 0.9 | 5.2 | 0.00 | 0.00 | 0.00 | 53 | 1015.8 |
| 20260506100004 | 51 | 69 | 1.7 | 5.2 | 0.00 | 0.00 | 0.00 | 54 | 1015.9 |
| 20260506095403 | 52 | 79 | 1.7 | 6.1 | 0.00 | 0.00 | 0.00 | 53 | 1015.8 |
| 20260506094503 | 52 | 80 | 1.7 | 5.2 | 0.00 | 0.00 | 0.00 | 52 | 1016.0 |
| 20260506093603 | 52 | 71 | 1.7 | 6.1 | 0.00 | 0.00 | 0.00 | 53 | 1016.1 |
| 20260506092703 | 51 | 69 | 1.7 | 5.2 | 0.00 | 0.00 | 0.00 | 53 | 1016.1 |
| 20260506091803 | 51 | 79 | 1.7 | 5.2 | 0.00 | 0.00 | 0.00 | 55 | 1016.2 |
| 20260506091118 | 50 | 75 | 1.7 | 5.2 | 0.00 | 0.00 | 0.00 | 52 | 1016.3 |
| 20260506090217 | 51 | 80 | 1.7 | 5.2 | 0.00 | 0.00 | 0.00 | 54 | 1016.0 |
| 20260506085403 | 50 | 77 | 1.7 | 3.5 | 0.00 | 0.00 | 0.00 | 55 | 1016.0 |
| 20260506084503 | 49 | 76 | 0.9 | 3.5 | 0.00 | 0.00 | 0.00 | 56 | 1016.2 |
| 20260506083603 | 49 | 84 | 0.9 | 3.5 | 0.00 | 0.00 | 0.00 | 59 | 1016.3 |
| 20260506082703 | 48 | 74 | 0.9 | 3.5 | 0.00 | 0.00 | 0.00 | 59 | 1016.5 |
| 20260506081803 | 47 | 72 | 1.7 | 7.0 | 0.00 | 0.00 | 0.00 | 62 | 1016.1 |
| 20260506080903 | 48 | 71 | 0.9 | 5.2 | 0.00 | 0.00 | 0.00 | 61 | 1016.1 |
| 20260506072704 | 44 | 80 | 1.7 | 5.2 | 0.00 | 0.00 | 0.00 | 66 | 1016.1 |
| 20260506071804 | 44 | 79 | 0.9 | 5.2 | 0.00 | 0.00 | 0.00 | 67 | 1016.2 |
| 20260506071117 | 44 | 84 | 0.9 | 3.5 | 0.00 | 0.00 | 0.00 | 67 | 1016.1 |
| 20260506061803 | 42 | 79 | 1.7 | 3.5 | 0.00 | 0.00 | 0.00 | 69 | 1015.8 |
| 20260506060903 | 42 | 77 | 0.9 | 3.5 | 0.00 | 0.00 | 0.00 | 70 | 1015.6 |
| 20260506050903 | 41 | 79 | 0.9 | 3.5 | 0.00 | 0.00 | 0.00 | 74 | 1015.7 |
| 20260506050217 | 41 | 78 | 0.9 | 3.5 | 0.00 | 0.00 | 0.00 | 74 | 1015.8 |
| 20260506044503 | 41 | 77 | 1.7 | 5.2 | 0.00 | 0.00 | 0.00 | 75 | 1015.8 |
| 20260506043818 | 41 | 81 | 0.9 | 2.6 | 0.00 | 0.00 | 0.00 | 75 | 1015.7 |
| 20260506042703 | 40 | 75 | 0.9 | 3.5 | 0.00 | 0.00 | 0.00 | 76 | 1015.8 |
| 20260506042018 | 40 | 76 | 0.9 | 3.5 | 0.00 | 0.00 | 0.00 | 76 | 1015.7 |
| 20260506040903 | 41 | 75 | 0.9 | 2.6 | 0.00 | 0.00 | 0.00 | 76 | 1015.9 |
| 20260506040003 | 41 | 76 | 0.9 | 3.5 | 0.00 | 0.00 | 0.00 | 76 | 1016.0 |
| 20260506035403 | 41 | 76 | 0.9 | 3.5 | 0.00 | 0.00 | 0.00 | 76 | 1015.7 |
| 20260506034503 | 41 | 73 | 0.9 | 1.7 | 0.00 | 0.00 | 0.00 | 76 | 1016.0 |
| 20260506033603 | 41 | 71 | 0.9 | 2.6 | 0.00 | 0.00 | 0.00 | 76 | 1016.0 |
| 20260506032917 | 41 | 72 | 0.9 | 2.6 | 0.00 | 0.00 | 0.00 | 76 | 1016.1 |
| 20260506031803 | 41 | 76 | 0.9 | 2.6 | 0.00 | 0.00 | 0.00 | 76 | 1016.2 |
| 20260506030903 | 41 | 78 | 0.9 | 2.6 | 0.00 | 0.00 | 0.00 | 77 | 1016.0 |
| 20260506030217 | 41 | 76 | 1.7 | 5.2 | 0.00 | 0.00 | 0.00 | 76 | 1015.8 |
| 20260506025403 | 41 | 74 | 1.7 | 5.2 | 0.00 | 0.00 | 0.00 | 76 | 1016.2 |
| 20260506024503 | 41 | 77 | 1.7 | 5.2 | 0.00 | 0.00 | 0.00 | 76 | 1015.9 |
| 20260506023603 | 41 | 76 | 0.9 | 2.6 | 0.00 | 0.00 | 0.00 | 77 | 1015.9 |
| 20260506022703 | 41 | 75 | 0.9 | 3.5 | 0.00 | 0.00 | 0.00 | 77 | 1015.9 |
| 20260506021803 | 41 | 75 | 1.7 | 3.5 | 0.00 | 0.00 | 0.00 | 77 | 1015.7 |
| 20260506020903 | 41 | 70 | 1.7 | 5.2 | 0.00 | 0.00 | 0.00 | 77 | 1015.9 |
| 20260506020218 | 41 | 72 | 1.7 | 3.5 | 0.00 | 0.00 | 0.00 | 77 | 1016.0 |
| 20260506015403 | 41 | 74 | 0.9 | 2.6 | 0.00 | 0.00 | 0.00 | 79 | 1016.1 |
| 20260506014503 | 41 | 70 | 0.9 | 1.7 | 0.00 | 0.00 | 0.00 | 78 | 1016.1 |
| 20260506013816 | 41 | 73 | 0.9 | 2.6 | 0.00 | 0.00 | 0.00 | 78 | 1016.0 |
| 20260506012703 | 41 | 73 | 0.9 | 2.6 | 0.00 | 0.00 | 0.00 | 78 | 1016.1 |
| 20260506012017 | 41 | 75 | 0.9 | 2.6 | 0.00 | 0.00 | 0.00 | 77 | 1016.3 |
| 20260506010903 | 41 | 80 | 0.9 | 3.5 | 0.00 | 0.00 | 0.00 | 77 | 1016.2 |
| 20260506010004 | 41 | 75 | 0.9 | 2.6 | 0.00 | 0.00 | 0.00 | 77 | 1016.2 |
| 20260506005403 | 41 | 75 | 0.9 | 3.5 | 0.00 | 0.00 | 0.00 | 77 | 1016.2 |
| 20260506004717 | 41 | 77 | 0.9 | 3.5 | 0.00 | 0.00 | 0.00 | 77 | 1016.2 |
| 20260506003603 | 41 | 76 | 0.9 | 3.5 | 0.00 | 0.00 | 0.00 | 77 | 1016.0 |
| 20260506002703 | 42 | 77 | 0.9 | 3.5 | 0.00 | 0.00 | 0.00 | 76 | 1016.1 |
| 20260506001803 | 42 | 80 | 1.7 | 5.2 | 0.00 | 0.00 | 0.00 | 76 | 1016.2 |
| 20260506000903 | 42 | 84 | 1.7 | 5.2 | 0.00 | 0.00 | 0.00 | 76 | 1016.1 |
| 20260506000003 | 42 | 78 | 1.7 | 5.2 | 0.00 | 0.00 | 0.00 | 76 | 1016.0 |
| 20260505235403 | 42 | 76 | 1.7 | 5.2 | 0.00 | 0.00 | 0.00 | 76 | 1016.3 |
| 20260505234503 | 42 | 79 | 0.9 | 3.5 | 0.00 | 0.00 | 0.00 | 76 | 1016.3 |
| 20260505233603 | 42 | 81 | 1.7 | 5.2 | 0.00 | 0.00 | 0.00 | 76 | 1016.3 |
| 20260505232703 | 43 | 81 | 1.7 | 5.2 | 0.00 | 0.00 | 0.00 | 76 | 1016.2 |
| 20260505231803 | 43 | 78 | 1.7 | 5.2 | 0.00 | 0.00 | 0.00 | 76 | 1016.4 |
| 20260505230903 | 43 | 75 | 1.7 | 7.0 | 0.00 | 0.00 | 0.00 | 76 | 1016.2 |
| 20260505230004 | 43 | 73 | 0.9 | 5.2 | 0.00 | 0.00 | 0.00 | 75 | 1016.3 |
| 20260505225403 | 44 | 81 | 1.7 | 5.2 | 0.00 | 0.00 | 0.00 | 75 | 1016.4 |
| 20260505224503 | 44 | 73 | 1.7 | 7.0 | 0.00 | 0.00 | 0.00 | 75 | 1016.2 |
| 20260505223603 | 44 | 83 | 1.7 | 6.1 | 0.00 | 0.00 | 0.00 | 75 | 1016.3 |
| 20260505222917 | 44 | 90 | 1.7 | 5.2 | 0.00 | 0.00 | 0.00 | 74 | 1016.2 |
| 20260505221803 | 45 | 76 | 1.7 | 7.0 | 0.00 | 0.00 | 0.00 | 73 | 1016.3 |
| 20260505221117 | 45 | 75 | 1.7 | 7.0 | 0.00 | 0.00 | 0.00 | 73 | 1016.6 |
| 20260505220003 | 45 | 78 | 1.7 | 5.2 | 0.00 | 0.00 | 0.00 | 73 | 1016.3 |
| 20260505215403 | 45 | 85 | 1.7 | 5.2 | 0.00 | 0.00 | 0.00 | 72 | 1016.2 |
| 20260505214503 | 45 | 83 | 1.7 | 5.2 | 0.00 | 0.00 | 0.00 | 72 | 1016.3 |
| 20260505213603 | 45 | 83 | 1.7 | 5.2 | 0.00 | 0.00 | 0.00 | 72 | 1015.9 |
| 20260505212703 | 46 | 84 | 1.7 | 6.1 | 0.00 | 0.00 | 0.00 | 72 | 1015.9 |
| 20260505211803 | 46 | 82 | 1.7 | 6.1 | 0.00 | 0.00 | 0.00 | 72 | 1015.8 |
| 20260505211117 | 46 | 83 | 1.7 | 5.2 | 0.00 | 0.00 | 0.00 | 72 | 1016.1 |
| 20260505210003 | 46 | 76 | 1.7 | 6.1 | 0.00 | 0.00 | 0.00 | 72 | 1016.2 |
| 20260505205403 | 46 | 76 | 1.7 | 7.0 | 0.00 | 0.00 | 0.00 | 72 | 1016.0 |
| 20260505204503 | 46 | 76 | 1.7 | 7.0 | 0.00 | 0.00 | 0.00 | 71 | 1015.8 |
| 20260505203817 | 46 | 80 | 1.7 | 7.0 | 0.00 | 0.00 | 0.00 | 71 | 1015.8 |
| 20260505202703 | 46 | 80 | 1.7 | 6.1 | 0.00 | 0.00 | 0.00 | 71 | 1016.0 |
| 20260505201803 | 47 | 76 | 1.7 | 5.2 | 0.00 | 0.00 | 0.00 | 70 | 1016.0 |
| 20260505200903 | 47 | 80 | 1.7 | 5.2 | 0.00 | 0.00 | 0.00 | 70 | 1016.0 |
| 20260505200003 | 47 | 78 | 1.7 | 3.5 | 0.00 | 0.00 | 0.00 | 70 | 1015.9 |
| 20260505195403 | 47 | 75 | 1.7 | 3.5 | 0.00 | 0.00 | 0.00 | 70 | 1015.8 |
| 20260505194503 | 47 | 79 | 1.7 | 5.2 | 0.00 | 0.00 | 0.00 | 70 | 1015.8 |
| 20260505193603 | 47 | 87 | 1.7 | 5.2 | 0.00 | 0.00 | 0.00 | 70 | 1015.8 |
| 20260505192703 | 47 | 82 | 1.7 | 6.1 | 0.00 | 0.00 | 0.00 | 70 | 1015.4 |
| 20260505191803 | 48 | 80 | 1.7 | 6.1 | 0.00 | 0.00 | 0.00 | 70 | 1015.5 |
| 20260505190903 | 48 | 81 | 1.7 | 7.0 | 0.00 | 0.00 | 0.00 | 69 | 1015.4 |
| 20260505190004 | 48 | 88 | 1.7 | 7.0 | 0.00 | 0.00 | 0.00 | 68 | 1015.3 |
| 20260505185403 | 48 | 84 | 1.7 | 7.0 | 0.00 | 0.00 | 0.00 | 69 | 1015.1 |
| 20260505184503 | 48 | 80 | 2.6 | 8.7 | 0.00 | 0.00 | 0.00 | 68 | 1015.1 |
| 20260505183603 | 49 | 83 | 2.6 | 7.0 | 0.00 | 0.00 | 0.00 | 67 | 1015.2 |
| 20260505182703 | 49 | 82 | 2.6 | 8.7 | 0.00 | 0.00 | 0.00 | 68 | 1015.6 |
| 20260505181803 | 49 | 84 | 2.6 | 7.0 | 0.00 | 0.00 | 0.00 | 68 | 1015.3 |
| 20260505180903 | 49 | 87 | 2.6 | 9.6 | 0.00 | 0.00 | 0.00 | 68 | 1015.4 |
| 20260505180003 | 49 | 83 | 2.6 | 7.8 | 0.00 | 0.00 | 0.00 | 68 | 1015.4 |
| 20260505175617 | 50 | 77 | 2.6 | 7.8 | 0.00 | 0.00 | 0.00 | 68 | 1015.2 |
| 20260505174503 | 50 | 84 | 3.5 | 8.7 | 0.00 | 0.00 | 0.00 | 68 | 1015.4 |
| 20260505173603 | 50 | 79 | 2.6 | 8.7 | 0.00 | 0.00 | 0.00 | 69 | 1015.5 |
| 20260505172703 | 51 | 85 | 2.6 | 11.3 | 0.00 | 0.00 | 0.00 | 68 | 1015.4 |
| 20260505171803 | 51 | 89 | 2.6 | 7.0 | 0.00 | 0.00 | 0.00 | 67 | 1015.2 |
| 20260505170903 | 51 | 80 | 3.5 | 8.7 | 0.00 | 0.00 | 0.00 | 68 | 1015.1 |
| 20260505170217 | 52 | 72 | 3.5 | 8.7 | 0.00 | 0.00 | 0.00 | 69 | 1015.3 |